Time,TemperatureF,DewpointF,PressureIn,WindDirection,WindDirectionDegrees,WindSpeedMPH,WindSpeedGustMPH,Humidity,HourlyPrecipIn,Conditions,Clouds,dailyrainin,SoftwareType,DateUTC
2013-01-10 00:00:00,54.5,35.2,28.74,South,185,2.0,9.0,48,0.00,,,0.00,VWS V13.01,2013-01-10 05:00:00,
2013-01-10 00:01:00,54.5,35.2,28.74,SSW,199,4.0,9.0,48,0.00,,,0.00,VWS V13.01,2013-01-10 05:01:00,
2013-01-10 00:05:00,54.3,35.6,28.74,SW,217,9.0,10.0,49,0.00,,,0.00,VWS V13.01,2013-01-10 05:05:00,
2013-01-10 00:06:00,54.6,35.3,29.98,SW,219,2.0,9.0,48,0.00,,,0.00,VWS V13.01,2013-01-10 05:06:00,
2013-01-10 00:10:00,54.5,35.2,29.98,South,187,5.0,9.0,48,0.00,,,0.00,VWS V13.01,2013-01-10 05:10:00,
2013-01-10 00:11:00,54.8,35.0,29.98,SSW,195,2.0,13.0,47,0.00,,,0.00,VWS V13.01,2013-01-10 05:11:00,
2013-01-10 00:15:00,54.6,34.8,29.98,SSW,194,4.0,10.0,47,0.00,,,0.00,VWS V13.01,2013-01-10 05:15:00,
2013-01-10 00:16:00,54.6,34.2,29.98,SSW,199,0.0,8.0,46,0.00,,,0.00,VWS V13.01,2013-01-10 05:16:00,
2013-01-10 00:20:00,54.7,33.8,29.98,SW,226,9.0,13.0,45,0.00,,,0.00,VWS V13.01,2013-01-10 05:20:00,
2013-01-10 00:21:00,54.4,34.1,29.98,South,185,4.0,4.0,46,0.00,,,0.00,VWS V13.01,2013-01-10 05:21:00,
2013-01-10 00:25:00,54.5,34.2,29.98,SSW,199,3.0,8.0,46,0.00,,,0.00,VWS V13.01,2013-01-10 05:25:00,
2013-01-10 00:26:00,54.2,34.4,29.98,South,179,0.0,3.0,47,0.00,,,0.00,VWS V13.01,2013-01-10 05:26:00,
2013-01-10 00:30:00,54.3,34.0,29.98,South,179,0.0,4.0,46,0.00,,,0.00,VWS V13.01,2013-01-10 05:30:00,
2013-01-10 00:31:00,53.9,34.2,29.98,South,179,1.0,3.0,47,0.00,,,0.00,VWS V13.01,2013-01-10 05:31:00,
2013-01-10 00:35:00,54.1,34.3,29.98,South,179,0.0,3.0,47,0.00,,,0.00,VWS V13.01,2013-01-10 05:35:00,
2013-01-10 00:36:00,53.7,34.0,29.98,South,190,3.0,4.0,47,0.00,,,0.00,VWS V13.01,2013-01-10 05:36:00,
2013-01-10 00:40:00,53.9,34.2,29.98,South,179,2.0,3.0,47,0.00,,,0.00,VWS V13.01,2013-01-10 05:40:00,
2013-01-10 00:41:00,53.7,34.0,29.98,West,263,5.0,7.0,47,0.00,,,0.00,VWS V13.01,2013-01-10 05:41:00,
2013-01-10 00:45:00,53.7,34.0,29.98,SSW,194,0.0,4.0,47,0.00,,,0.00,VWS V13.01,2013-01-10 05:45:00,
2013-01-10 00:46:00,53.9,34.2,29.98,SSW,194,3.0,6.0,47,0.00,,,0.00,VWS V13.01,2013-01-10 05:46:00,
2013-01-10 00:50:00,53.9,34.2,29.98,SW,216,2.0,12.0,47,0.00,,,0.00,VWS V13.01,2013-01-10 05:50:00,
2013-01-10 00:51:00,53.8,34.1,29.98,SSW,209,3.0,6.0,47,0.00,,,0.00,VWS V13.01,2013-01-10 05:51:00,
2013-01-10 00:55:00,53.8,34.1,29.98,SW,222,4.0,6.0,47,0.00,,,0.00,VWS V13.01,2013-01-10 05:55:00,
2013-01-10 00:56:00,53.6,33.9,29.98,WSW,246,2.0,6.0,47,0.00,,,0.00,VWS V13.01,2013-01-10 05:56:00,
2013-01-10 01:00:00,53.7,34.0,29.98,SW,221,1.0,6.0,47,0.00,,,0.00,VWS V13.01,2013-01-10 06:00:00,
2013-01-10 01:01:00,53.2,34.0,29.98,SW,226,0.0,7.0,48,0.00,,,0.00,VWS V13.01,2013-01-10 06:01:00,
2013-01-10 01:05:00,53.5,33.8,29.98,SW,232,1.0,6.0,47,0.00,,,0.00,VWS V13.01,2013-01-10 06:05:00,
2013-01-10 01:06:00,52.9,33.8,29.98,SSW,207,2.0,4.0,48,0.00,,,0.00,VWS V13.01,2013-01-10 06:06:00,
2013-01-10 01:10:00,53.1,33.9,29.98,SSW,208,4.0,7.0,48,0.00,,,0.00,VWS V13.01,2013-01-10 06:10:00,
2013-01-10 01:11:00,52.8,33.7,29.98,SSW,195,4.0,10.0,48,0.00,,,0.00,VWS V13.01,2013-01-10 06:11:00,
2013-01-10 01:15:00,52.8,33.7,29.98,SW,232,5.0,12.0,48,0.00,,,0.00,VWS V13.01,2013-01-10 06:15:00,
2013-01-10 01:16:00,52.9,33.2,29.98,SSW,199,10.0,12.0,47,0.00,,,0.00,VWS V13.01,2013-01-10 06:16:00,
2013-01-10 01:20:00,52.8,33.7,29.98,SW,226,6.0,10.0,48,0.00,,,0.00,VWS V13.01,2013-01-10 06:20:00,
2013-01-10 01:21:00,52.9,33.8,29.98,SSW,201,2.0,6.0,48,0.00,,,0.00,VWS V13.01,2013-01-10 06:21:00,
2013-01-10 01:25:00,52.9,33.8,29.98,SSW,210,2.0,12.0,48,0.00,,,0.00,VWS V13.01,2013-01-10 06:25:00,
2013-01-10 01:26:00,52.7,33.6,29.98,SSW,200,4.0,6.0,48,0.00,,,0.00,VWS V13.01,2013-01-10 06:26:00,
2013-01-10 01:30:00,52.8,33.7,29.98,SSW,210,6.0,7.0,48,0.00,,,0.00,VWS V13.01,2013-01-10 06:30:00,
2013-01-10 01:31:00,52.4,33.3,29.98,South,188,6.0,7.0,48,0.00,,,0.00,VWS V13.01,2013-01-10 06:31:00,
2013-01-10 01:35:00,52.6,34.0,29.98,SSW,209,3.0,6.0,49,0.00,,,0.00,VWS V13.01,2013-01-10 06:35:00,
2013-01-10 01:36:00,52.3,34.2,29.98,SW,217,3.0,5.0,50,0.00,,,0.00,VWS V13.01,2013-01-10 06:36:00,
2013-01-10 01:40:00,52.4,33.8,29.98,SSW,195,1.0,7.0,49,0.00,,,0.00,VWS V13.01,2013-01-10 06:40:00,
2013-01-10 01:41:00,52.2,33.6,29.98,SSW,203,5.0,7.0,49,0.00,,,0.00,VWS V13.01,2013-01-10 06:41:00,
2013-01-10 01:45:00,52.3,33.7,29.98,SW,218,1.0,5.0,49,0.00,,,0.00,VWS V13.01,2013-01-10 06:45:00,
2013-01-10 01:46:00,52.1,34.0,29.98,SW,217,3.0,4.0,50,0.00,,,0.00,VWS V13.01,2013-01-10 06:46:00,
2013-01-10 01:50:00,52.1,34.5,29.98,SSW,209,1.0,7.0,51,0.00,,,0.00,VWS V13.01,2013-01-10 06:50:00,
2013-01-10 01:51:00,52.0,34.0,29.98,WSW,253,1.0,9.0,50,0.00,,,0.00,VWS V13.01,2013-01-10 06:51:00,
2013-01-10 01:55:00,52.0,34.0,29.98,SW,220,1.0,4.0,50,0.00,,,0.00,VWS V13.01,2013-01-10 06:55:00,
2013-01-10 01:56:00,52.1,34.0,29.98,SW,226,4.0,5.0,50,0.00,,,0.00,VWS V13.01,2013-01-10 06:56:00,
2013-01-10 02:00:00,52.1,34.0,29.98,West,269,4.0,9.0,50,0.00,,,0.00,VWS V13.01,2013-01-10 07:00:00,
2013-01-10 02:01:00,52.2,34.1,29.98,West,259,2.0,5.0,50,0.00,,,0.00,VWS V13.01,2013-01-10 07:01:00,
2013-01-10 02:05:00,52.2,34.1,29.98,SW,234,5.0,5.0,50,0.00,,,0.00,VWS V13.01,2013-01-10 07:05:00,
2013-01-10 02:06:00,52.1,34.5,29.98,West,261,0.0,3.0,51,0.00,,,0.00,VWS V13.01,2013-01-10 07:06:00,
2013-01-10 02:10:00,52.2,34.1,29.98,West,262,0.0,5.0,50,0.00,,,0.00,VWS V13.01,2013-01-10 07:10:00,
2013-01-10 02:11:00,51.9,34.4,29.98,SW,225,2.0,4.0,51,0.00,,,0.00,VWS V13.01,2013-01-10 07:11:00,
2013-01-10 02:15:00,52.1,34.5,29.98,West,259,1.0,3.0,51,0.00,,,0.00,VWS V13.01,2013-01-10 07:15:00,
2013-01-10 02:16:00,51.7,34.7,29.98,SW,221,0.0,5.0,52,0.00,,,0.00,VWS V13.01,2013-01-10 07:16:00,
2013-01-10 02:20:00,51.8,34.3,29.98,SW,225,2.0,4.0,51,0.00,,,0.00,VWS V13.01,2013-01-10 07:20:00,
2013-01-10 02:21:00,51.5,34.5,29.98,SW,233,3.0,5.0,52,0.00,,,0.00,VWS V13.01,2013-01-10 07:21:00,
2013-01-10 02:25:00,51.6,34.6,29.98,SW,221,1.0,5.0,52,0.00,,,0.00,VWS V13.01,2013-01-10 07:25:00,
2013-01-10 02:26:00,51.2,34.7,29.98,SW,219,5.0,6.0,53,0.00,,,0.00,VWS V13.01,2013-01-10 07:26:00,
2013-01-10 02:30:00,51.4,34.9,29.98,SW,223,3.0,5.0,53,0.00,,,0.00,VWS V13.01,2013-01-10 07:30:00,
2013-01-10 02:31:00,51.1,35.0,29.98,SW,227,4.0,9.0,54,0.00,,,0.00,VWS V13.01,2013-01-10 07:31:00,
2013-01-10 02:35:00,51.2,34.7,29.98,SW,236,5.0,7.0,53,0.00,,,0.00,VWS V13.01,2013-01-10 07:35:00,
2013-01-10 02:36:00,51.1,35.0,29.98,SW,218,3.0,11.0,54,0.00,,,0.00,VWS V13.01,2013-01-10 07:36:00,
2013-01-10 02:40:00,51.1,35.5,29.98,SW,215,3.0,12.0,55,0.00,,,0.00,VWS V13.01,2013-01-10 07:40:00,
2013-01-10 02:41:00,51.1,35.0,29.98,SSE,156,5.0,11.0,54,0.00,,,0.00,VWS V13.01,2013-01-10 07:41:00,
2013-01-10 02:45:00,51.1,35.0,29.98,SW,231,4.0,13.0,54,0.00,,,0.00,VWS V13.01,2013-01-10 07:45:00,
2013-01-10 02:46:00,51.4,34.9,29.98,SW,218,6.0,17.0,53,0.00,,,0.00,VWS V13.01,2013-01-10 07:46:00,
2013-01-10 02:50:00,51.2,35.1,29.98,West,262,6.0,17.0,54,0.00,,,0.00,VWS V13.01,2013-01-10 07:50:00,
2013-01-10 02:51:00,51.5,35.4,31.30,SW,215,4.0,16.0,54,0.00,,,0.00,VWS V13.01,2013-01-10 07:51:00,
2013-01-10 02:55:00,51.5,35.0,31.32,SW,223,4.0,17.0,53,0.00,,,0.00,VWS V13.01,2013-01-10 07:55:00,
2013-01-10 02:56:00,51.4,34.9,31.30,WSW,247,2.0,15.0,53,0.00,,,0.00,VWS V13.01,2013-01-10 07:56:00,
2013-01-10 03:00:00,51.5,35.4,31.30,SSW,207,10.0,16.0,54,0.00,,,0.00,VWS V13.01,2013-01-10 08:00:00,
2013-01-10 03:01:00,51.4,34.9,31.30,West,259,12.0,16.0,53,0.00,,,0.00,VWS V13.01,2013-01-10 08:01:00,
2013-01-10 03:05:00,51.4,34.9,31.30,SW,229,6.0,15.0,53,0.00,,,0.00,VWS V13.01,2013-01-10 08:05:00,
2013-01-10 03:06:00,51.3,34.8,31.30,SSW,207,4.0,13.0,53,0.00,,,0.00,VWS V13.01,2013-01-10 08:06:00,
2013-01-10 03:10:00,51.4,34.9,31.30,SW,229,10.0,16.0,53,0.00,,,0.00,VWS V13.01,2013-01-10 08:10:00,
2013-01-10 03:11:00,51.1,35.0,17.20,South,175,3.0,6.0,54,0.00,,,0.00,VWS V13.01,2013-01-10 08:11:00,
2013-01-10 03:15:00,51.3,35.2,17.20,WSW,252,6.0,13.0,54,0.00,,,0.00,VWS V13.01,2013-01-10 08:15:00,
2013-01-10 03:16:00,51.0,35.0,17.20,SW,223,1.0,9.0,54,0.00,,,0.00,VWS V13.01,2013-01-10 08:16:00,
2013-01-10 03:20:00,51.1,35.5,17.20,SSW,205,7.0,9.0,55,0.00,,,0.00,VWS V13.01,2013-01-10 08:20:00,
2013-01-10 03:21:00,50.9,35.3,17.20,SW,229,3.0,4.0,55,0.00,,,0.00,VWS V13.01,2013-01-10 08:21:00,
2013-01-10 03:25:00,51.0,35.0,17.20,WSW,240,4.0,9.0,54,0.00,,,0.00,VWS V13.01,2013-01-10 08:25:00,
2013-01-10 03:26:00,50.7,35.1,17.20,SSW,211,5.0,9.0,55,0.00,,,0.00,VWS V13.01,2013-01-10 08:26:00,
2013-01-10 03:30:00,50.8,35.2,17.20,SW,219,3.0,7.0,55,0.00,,,0.00,VWS V13.01,2013-01-10 08:30:00,
2013-01-10 03:31:00,50.6,35.0,17.20,SW,236,7.0,8.0,55,0.00,,,0.00,VWS V13.01,2013-01-10 08:31:00,
2013-01-10 03:35:00,50.6,35.0,17.20,SSW,197,4.0,9.0,55,0.00,,,0.00,VWS V13.01,2013-01-10 08:35:00,
2013-01-10 03:36:00,50.6,35.5,17.20,SW,225,3.0,5.0,56,0.00,,,0.00,VWS V13.01,2013-01-10 08:36:00,
2013-01-10 03:40:00,50.6,35.0,17.20,SW,223,5.0,8.0,55,0.00,,,0.00,VWS V13.01,2013-01-10 08:40:00,
2013-01-10 03:41:00,50.5,35.0,23.31,SW,217,3.0,4.0,55,0.00,,,0.00,VWS V13.01,2013-01-10 08:41:00,
2013-01-10 03:45:00,50.6,35.0,23.31,SW,219,0.0,7.0,55,0.00,,,0.00,VWS V13.01,2013-01-10 08:45:00,
2013-01-10 03:46:00,50.3,34.8,23.31,SSW,200,0.0,4.0,55,0.00,,,0.00,VWS V13.01,2013-01-10 08:46:00,
2013-01-10 03:50:00,50.4,34.9,23.31,SSW,198,0.0,7.0,55,0.00,,,0.00,VWS V13.01,2013-01-10 08:50:00,
2013-01-10 03:51:00,50.1,34.6,23.31,SW,234,5.0,6.0,55,0.00,,,0.00,VWS V13.01,2013-01-10 08:51:00,
2013-01-10 03:55:00,50.2,34.7,23.31,SSW,200,0.0,4.0,55,0.00,,,0.00,VWS V13.01,2013-01-10 08:55:00,
2013-01-10 03:56:00,50.1,34.6,23.31,SW,234,1.0,1.0,55,0.00,,,0.00,VWS V13.01,2013-01-10 08:56:00,
2013-01-10 04:00:00,50.0,34.5,23.31,SW,234,1.0,6.0,55,0.00,,,0.00,VWS V13.01,2013-01-10 09:00:00,
2013-01-10 04:01:00,50.1,34.6,23.31,SW,236,3.0,3.0,55,0.00,,,0.00,VWS V13.01,2013-01-10 09:01:00,
2013-01-10 04:05:00,50.1,34.6,23.31,WSW,237,2.0,6.0,55,0.00,,,0.00,VWS V13.01,2013-01-10 09:05:00,
2013-01-10 04:06:00,50.2,35.6,23.31,SW,219,3.0,10.0,57,0.00,,,0.00,VWS V13.01,2013-01-10 09:06:00,
2013-01-10 04:10:00,50.1,34.6,23.31,WSW,257,7.0,7.0,55,0.00,,,0.00,VWS V13.01,2013-01-10 09:10:00,
2013-01-10 04:12:00,50.0,34.5,23.31,WSW,246,2.0,2.0,55,0.00,,,0.00,VWS V13.01,2013-01-10 09:12:00,
2013-01-10 04:15:00,50.1,34.6,23.31,WSW,237,4.0,10.0,55,0.00,,,0.00,VWS V13.01,2013-01-10 09:15:00,
2013-01-10 04:17:00,49.9,34.8,23.31,WSW,254,5.0,7.0,56,0.00,,,0.00,VWS V13.01,2013-01-10 09:17:00,
2013-01-10 04:20:00,50.0,34.5,23.31,WSW,246,1.0,2.0,55,0.00,,,0.00,VWS V13.01,2013-01-10 09:20:00,
2013-01-10 04:22:00,49.8,34.3,23.31,WSW,248,4.0,5.0,55,0.00,,,0.00,VWS V13.01,2013-01-10 09:22:00,
2013-01-10 04:25:00,49.9,34.4,23.31,SW,232,4.0,7.0,55,0.00,,,0.00,VWS V13.01,2013-01-10 09:25:00,
2013-01-10 04:27:00,49.9,33.9,17.20,WSW,250,2.0,4.0,54,0.00,,,0.00,VWS V13.01,2013-01-10 09:27:00,
2013-01-10 04:30:00,49.8,34.3,23.31,WSW,250,3.0,5.0,55,0.00,,,0.00,VWS V13.01,2013-01-10 09:30:00,
2013-01-10 04:32:00,49.8,34.3,17.20,WSW,253,0.0,5.0,55,0.00,,,0.00,VWS V13.01,2013-01-10 09:32:00,
2013-01-10 04:35:00,49.9,33.9,17.20,WSW,250,2.0,4.0,54,0.00,,,0.00,VWS V13.01,2013-01-10 09:35:00,
2013-01-10 04:37:00,49.4,34.4,17.20,SW,230,1.0,4.0,56,0.00,,,0.00,VWS V13.01,2013-01-10 09:37:00,
2013-01-10 04:40:00,49.8,34.3,17.20,WSW,253,3.0,5.0,55,0.00,,,0.00,VWS V13.01,2013-01-10 09:40:00,
2013-01-10 04:42:00,49.2,33.7,17.20,WSW,252,0.0,5.0,55,0.00,,,0.00,VWS V13.01,2013-01-10 09:42:00,
2013-01-10 04:45:00,49.4,34.4,17.20,SW,228,3.0,4.0,56,0.00,,,0.00,VWS V13.01,2013-01-10 09:45:00,
2013-01-10 04:47:00,49.0,33.5,31.70,WSW,240,1.0,5.0,55,0.00,,,0.00,VWS V13.01,2013-01-10 09:47:00,
2013-01-10 04:50:00,49.2,34.2,17.20,WSW,252,2.0,5.0,56,0.00,,,0.00,VWS V13.01,2013-01-10 09:50:00,
2013-01-10 04:52:00,48.9,33.5,31.70,WSW,254,1.0,4.0,55,0.00,,,0.00,VWS V13.01,2013-01-10 09:52:00,
2013-01-10 04:55:00,49.0,33.5,31.70,WSW,257,3.0,5.0,55,0.00,,,0.00,VWS V13.01,2013-01-10 09:55:00,
2013-01-10 04:57:00,48.8,33.4,31.70,WSW,245,1.0,4.0,55,0.00,,,0.00,VWS V13.01,2013-01-10 09:57:00,
2013-01-10 05:00:00,48.9,33.5,31.70,WSW,254,1.0,4.0,55,0.00,,,0.00,VWS V13.01,2013-01-10 10:00:00,
2013-01-10 05:02:00,48.6,33.2,31.70,WSW,246,0.0,5.0,55,0.00,,,0.00,VWS V13.01,2013-01-10 10:02:00,
2013-01-10 05:05:00,48.8,33.4,31.70,WSW,245,3.0,4.0,55,0.00,,,0.00,VWS V13.01,2013-01-10 10:05:00,
2013-01-10 05:07:00,48.4,33.0,31.70,SW,226,1.0,4.0,55,0.00,,,0.00,VWS V13.01,2013-01-10 10:07:00,
2013-01-10 05:10:00,48.6,33.2,31.70,WSW,246,0.0,5.0,55,0.00,,,0.00,VWS V13.01,2013-01-10 10:10:00,
2013-01-10 05:12:00,48.5,33.1,31.70,West,267,0.0,5.0,55,0.00,,,0.00,VWS V13.01,2013-01-10 10:12:00,
2013-01-10 05:15:00,48.4,33.0,31.70,SW,227,0.0,4.0,55,0.00,,,0.00,VWS V13.01,2013-01-10 10:15:00,
2013-01-10 05:17:00,48.4,33.0,31.70,West,267,0.0,3.0,55,0.00,,,0.00,VWS V13.01,2013-01-10 10:17:00,
2013-01-10 05:20:00,48.4,33.0,31.70,West,267,0.0,5.0,55,0.00,,,0.00,VWS V13.01,2013-01-10 10:20:00,
2013-01-10 05:22:00,48.3,32.9,31.70,West,267,2.0,2.0,55,0.00,,,0.00,VWS V13.01,2013-01-10 10:22:00,
2013-01-10 05:25:00,48.4,33.0,31.70,West,267,0.0,3.0,55,0.00,,,0.00,VWS V13.01,2013-01-10 10:25:00,
2013-01-10 05:27:00,48.1,32.7,31.70,West,267,0.0,1.0,55,0.00,,,0.00,VWS V13.01,2013-01-10 10:27:00,
2013-01-10 05:30:00,48.3,32.9,31.70,West,267,0.0,2.0,55,0.00,,,0.00,VWS V13.01,2013-01-10 10:30:00,
2013-01-10 05:32:00,48.0,33.1,31.70,West,267,0.0,1.0,56,0.00,,,0.00,VWS V13.01,2013-01-10 10:32:00,
2013-01-10 05:35:00,48.1,32.7,31.70,West,267,1.0,1.0,55,0.00,,,0.00,VWS V13.01,2013-01-10 10:35:00,
2013-01-10 05:37:00,47.7,32.8,31.70,West,267,0.0,1.0,56,0.00,,,0.00,VWS V13.01,2013-01-10 10:37:00,
2013-01-10 05:40:00,48.0,33.1,31.70,West,267,0.0,1.0,56,0.00,,,0.00,VWS V13.01,2013-01-10 10:40:00,
2013-01-10 05:42:00,47.1,32.2,31.70,West,267,0.0,2.0,56,0.00,,,0.00,VWS V13.01,2013-01-10 10:42:00,
2013-01-10 05:45:00,47.6,32.7,31.70,West,267,1.0,1.0,56,0.00,,,0.00,VWS V13.01,2013-01-10 10:45:00,
2013-01-10 05:47:00,46.6,32.6,23.31,West,267,1.0,1.0,58,0.00,,,0.00,VWS V13.01,2013-01-10 10:47:00,
2013-01-10 05:50:00,47.1,32.2,31.70,West,267,0.0,2.0,56,0.00,,,0.00,VWS V13.01,2013-01-10 10:50:00,
2013-01-10 05:52:00,46.1,32.2,23.31,West,267,0.0,1.0,58,0.00,,,0.00,VWS V13.01,2013-01-10 10:52:00,
2013-01-10 05:55:00,46.5,32.5,23.31,West,267,0.0,1.0,58,0.00,,,0.00,VWS V13.01,2013-01-10 10:55:00,
2013-01-10 05:57:00,45.6,32.1,23.31,West,267,0.0,0.0,59,0.00,,,0.00,VWS V13.01,2013-01-10 10:57:00,
2013-01-10 06:00:00,46.1,32.2,23.31,West,267,0.0,1.0,58,0.00,,,0.00,VWS V13.01,2013-01-10 11:00:00,
2013-01-10 06:02:00,45.2,31.7,23.31,West,267,0.0,3.0,59,0.00,,,0.00,VWS V13.01,2013-01-10 11:02:00,
2013-01-10 06:05:00,45.6,32.1,23.31,West,267,0.0,0.0,59,0.00,,,0.00,VWS V13.01,2013-01-10 11:05:00,
2013-01-10 06:07:00,45.0,32.0,23.31,West,267,0.0,1.0,60,0.00,,,0.00,VWS V13.01,2013-01-10 11:07:00,
2013-01-10 06:10:00,45.2,31.7,23.31,West,267,0.0,3.0,59,0.00,,,0.00,VWS V13.01,2013-01-10 11:10:00,
2013-01-10 06:12:00,45.0,32.0,23.31,West,267,0.0,1.0,60,0.00,,,0.00,VWS V13.01,2013-01-10 11:12:00,
2013-01-10 06:15:00,45.0,32.0,23.31,West,267,0.0,1.0,60,0.00,,,0.00,VWS V13.01,2013-01-10 11:15:00,
2013-01-10 06:17:00,45.0,32.0,23.31,West,267,0.0,1.0,60,0.00,,,0.00,VWS V13.01,2013-01-10 11:17:00,
2013-01-10 06:20:00,45.0,32.0,23.31,West,267,0.0,1.0,60,0.00,,,0.00,VWS V13.01,2013-01-10 11:20:00,
2013-01-10 06:22:00,45.0,32.0,23.31,West,267,0.0,0.0,60,0.00,,,0.00,VWS V13.01,2013-01-10 11:22:00,
2013-01-10 06:25:00,45.0,32.0,23.31,West,267,0.0,1.0,60,0.00,,,0.00,VWS V13.01,2013-01-10 11:25:00,
2013-01-10 06:27:00,44.4,31.8,23.31,West,267,0.0,1.0,61,0.00,,,0.00,VWS V13.01,2013-01-10 11:27:00,
2013-01-10 06:30:00,45.0,32.0,23.31,West,267,0.0,0.0,60,0.00,,,0.00,VWS V13.01,2013-01-10 11:30:00,
2013-01-10 06:32:00,44.2,32.0,32.45,West,267,0.0,1.0,62,0.00,,,0.00,VWS V13.01,2013-01-10 11:32:00,
2013-01-10 06:35:00,44.4,31.8,23.31,West,267,0.0,1.0,61,0.00,,,0.00,VWS V13.01,2013-01-10 11:35:00,
2013-01-10 06:37:00,44.5,32.3,32.45,West,267,0.0,2.0,62,0.00,,,0.00,VWS V13.01,2013-01-10 11:37:00,
2013-01-10 06:40:00,44.2,32.0,32.45,West,267,0.0,1.0,62,0.00,,,0.00,VWS V13.01,2013-01-10 11:40:00,
2013-01-10 06:42:00,44.9,32.3,32.45,West,267,0.0,1.0,61,0.00,,,0.00,VWS V13.01,2013-01-10 11:42:00,
2013-01-10 06:45:00,44.5,32.3,32.45,West,267,0.0,2.0,62,0.00,,,0.00,VWS V13.01,2013-01-10 11:45:00,
2013-01-10 06:47:00,45.0,32.4,32.45,West,267,0.0,2.0,61,0.00,,,0.00,VWS V13.01,2013-01-10 11:47:00,
2013-01-10 06:50:00,44.9,32.3,32.45,West,267,0.0,1.0,61,0.00,,,0.00,VWS V13.01,2013-01-10 11:50:00,
2013-01-10 06:53:00,44.7,32.1,32.45,West,267,0.0,1.0,61,0.00,,,0.00,VWS V13.01,2013-01-10 11:53:00,
2013-01-10 06:55:00,45.0,32.4,32.45,West,267,0.0,2.0,61,0.00,,,0.00,VWS V13.01,2013-01-10 11:55:00,
2013-01-10 06:58:00,44.2,32.0,32.45,West,267,0.0,1.0,62,0.00,,,0.00,VWS V13.01,2013-01-10 11:58:00,
2013-01-10 07:00:00,44.7,32.1,32.45,West,267,0.0,1.0,61,0.00,,,0.00,VWS V13.01,2013-01-10 12:00:00,
2013-01-10 07:03:00,44.0,32.2,32.45,West,267,3.0,3.0,63,0.00,,,0.00,VWS V13.01,2013-01-10 12:03:00,
2013-01-10 07:05:00,44.2,32.0,32.45,West,267,0.0,1.0,62,0.00,,,0.00,VWS V13.01,2013-01-10 12:05:00,
2013-01-10 07:08:00,44.6,32.4,32.45,SW,230,3.0,4.0,62,0.00,,,0.00,VWS V13.01,2013-01-10 12:08:00,
2013-01-10 07:10:00,44.0,32.2,32.45,West,267,3.0,3.0,63,0.00,,,0.00,VWS V13.01,2013-01-10 12:10:00,
2013-01-10 07:13:00,45.1,32.1,32.45,SW,232,2.0,5.0,60,0.00,,,0.00,VWS V13.01,2013-01-10 12:13:00,
2013-01-10 07:15:00,44.6,32.4,32.45,SW,230,3.0,4.0,62,0.00,,,0.00,VWS V13.01,2013-01-10 12:15:00,
2013-01-10 07:17:00,45.4,32.3,32.45,SSW,213,3.0,5.0,60,0.00,,,0.00,VWS V13.01,2013-01-10 12:17:00,
2013-01-10 07:20:00,45.1,32.1,32.45,SW,232,2.0,5.0,60,0.00,,,0.00,VWS V13.01,2013-01-10 12:20:00,
2013-01-10 07:22:00,45.3,31.8,32.45,SSW,213,0.0,3.0,59,0.00,,,0.00,VWS V13.01,2013-01-10 12:22:00,
2013-01-10 07:25:00,45.4,32.3,32.45,SSW,213,2.0,5.0,60,0.00,,,0.00,VWS V13.01,2013-01-10 12:25:00,
2013-01-10 07:27:00,45.3,31.8,32.45,SSW,213,0.0,3.0,59,0.00,,,0.00,VWS V13.01,2013-01-10 12:27:00,
2013-01-10 07:30:00,45.3,31.8,32.45,SSW,213,0.0,3.0,59,0.00,,,0.00,VWS V13.01,2013-01-10 12:30:00,
2013-01-10 07:32:00,45.2,31.7,32.45,SW,214,1.0,2.0,59,0.00,,,0.00,VWS V13.01,2013-01-10 12:32:00,
2013-01-10 07:35:00,45.3,31.8,32.45,SSW,213,1.0,3.0,59,0.00,,,0.00,VWS V13.01,2013-01-10 12:35:00,
2013-01-10 07:37:00,45.0,31.5,32.45,WSW,246,2.0,4.0,59,0.00,,,0.00,VWS V13.01,2013-01-10 12:37:00,
2013-01-10 07:40:00,45.2,31.7,32.45,SSW,213,0.0,2.0,59,0.00,,,0.00,VWS V13.01,2013-01-10 12:40:00,
2013-01-10 07:42:00,45.0,31.5,32.45,WSW,250,3.0,4.0,59,0.00,,,0.00,VWS V13.01,2013-01-10 12:42:00,
2013-01-10 07:45:00,45.0,31.5,32.45,WSW,246,2.0,4.0,59,0.00,,,0.00,VWS V13.01,2013-01-10 12:45:00,
2013-01-10 07:47:00,45.2,31.7,32.45,WSW,249,2.0,4.0,59,0.00,,,0.00,VWS V13.01,2013-01-10 12:47:00,
2013-01-10 07:50:00,45.0,31.5,32.45,WSW,249,3.0,4.0,59,0.00,,,0.00,VWS V13.01,2013-01-10 12:50:00,
2013-01-10 07:52:00,45.1,31.6,32.45,SW,234,3.0,6.0,59,0.00,,,0.00,VWS V13.01,2013-01-10 12:52:00,
2013-01-10 07:55:00,45.2,31.7,32.45,WSW,249,2.0,4.0,59,0.00,,,0.00,VWS V13.01,2013-01-10 12:55:00,
2013-01-10 07:57:00,45.2,31.3,32.45,WSW,250,1.0,5.0,58,0.00,,,0.00,VWS V13.01,2013-01-10 12:57:00,
2013-01-10 08:00:00,45.1,31.6,32.45,SW,235,3.0,6.0,59,0.00,,,0.00,VWS V13.01,2013-01-10 13:00:00,
2013-01-10 08:02:00,45.4,31.5,32.45,SSW,202,4.0,7.0,58,0.00,,,0.00,VWS V13.01,2013-01-10 13:02:00,
2013-01-10 08:05:00,45.2,31.3,32.45,WSW,250,2.0,5.0,58,0.00,,,0.00,VWS V13.01,2013-01-10 13:05:00,
2013-01-10 08:07:00,45.6,31.7,32.45,SW,233,5.0,10.0,58,0.00,,,0.00,VWS V13.01,2013-01-10 13:07:00,
2013-01-10 08:10:00,45.4,31.5,32.45,SSW,203,4.0,7.0,58,0.00,,,0.00,VWS V13.01,2013-01-10 13:10:00,
2013-01-10 08:12:00,46.0,31.6,32.45,SW,232,6.0,9.0,57,0.00,,,0.00,VWS V13.01,2013-01-10 13:12:00,
2013-01-10 08:15:00,45.6,31.7,32.45,WSW,240,5.0,10.0,58,0.00,,,0.00,VWS V13.01,2013-01-10 13:15:00,
2013-01-10 08:17:00,46.1,31.7,32.45,SSW,213,6.0,8.0,57,0.00,,,0.00,VWS V13.01,2013-01-10 13:17:00,
2013-01-10 08:20:00,46.0,31.6,32.45,SW,233,6.0,9.0,57,0.00,,,0.00,VWS V13.01,2013-01-10 13:20:00,
2013-01-10 08:22:00,46.3,31.9,32.45,SW,216,2.0,8.0,57,0.00,,,0.00,VWS V13.01,2013-01-10 13:22:00,
2013-01-10 08:25:00,46.1,31.7,32.45,SW,230,4.0,8.0,57,0.00,,,0.00,VWS V13.01,2013-01-10 13:25:00,
2013-01-10 08:27:00,46.5,32.1,32.45,SSW,209,4.0,12.0,57,0.00,,,0.00,VWS V13.01,2013-01-10 13:27:00,
2013-01-10 08:30:00,46.3,31.9,32.45,SW,218,3.0,8.0,57,0.00,,,0.00,VWS V13.01,2013-01-10 13:30:00,
2013-01-10 08:32:00,46.7,32.3,32.45,SW,221,2.0,9.0,57,0.00,,,0.00,VWS V13.01,2013-01-10 13:32:00,
2013-01-10 08:35:00,46.5,32.1,32.45,SSW,209,4.0,12.0,57,0.00,,,0.00,VWS V13.01,2013-01-10 13:35:00,
2013-01-10 08:38:00,47.0,32.1,32.45,SW,217,3.0,10.0,56,0.00,,,0.00,VWS V13.01,2013-01-10 13:38:00,
2013-01-10 08:40:00,46.7,32.3,32.45,West,261,5.0,9.0,57,0.00,,,0.00,VWS V13.01,2013-01-10 13:40:00,
2013-01-10 08:43:00,47.3,32.8,32.45,WSW,241,2.0,7.0,57,0.00,,,0.00,VWS V13.01,2013-01-10 13:43:00,
2013-01-10 08:45:00,47.0,32.1,32.45,SW,217,3.0,10.0,56,0.00,,,0.00,VWS V13.01,2013-01-10 13:45:00,
2013-01-10 08:48:00,47.7,32.8,32.45,SW,229,2.0,6.0,56,0.00,,,0.00,VWS V13.01,2013-01-10 13:48:00,
2013-01-10 08:50:00,47.3,32.8,32.45,WSW,241,2.0,7.0,57,0.00,,,0.00,VWS V13.01,2013-01-10 13:50:00,
2013-01-10 08:53:00,47.7,32.3,32.45,West,262,2.0,7.0,55,0.00,,,0.00,VWS V13.01,2013-01-10 13:53:00,
2013-01-10 08:55:00,47.7,32.8,32.45,SW,229,2.0,6.0,56,0.00,,,0.00,VWS V13.01,2013-01-10 13:55:00,
2013-01-10 08:57:00,47.9,32.5,32.45,SW,220,6.0,9.0,55,0.00,,,0.00,VWS V13.01,2013-01-10 13:57:00,
2013-01-10 09:00:00,47.7,32.3,32.45,West,262,2.0,7.0,55,0.00,,,0.00,VWS V13.01,2013-01-10 14:00:00,
2013-01-10 09:02:00,48.1,32.7,32.45,SW,233,7.0,8.0,55,0.00,,,0.00,VWS V13.01,2013-01-10 14:02:00,
2013-01-10 09:05:00,47.9,32.5,32.45,SW,220,6.0,9.0,55,0.00,,,0.00,VWS V13.01,2013-01-10 14:05:00,
2013-01-10 09:07:00,48.0,32.6,32.45,WSW,238,4.0,10.0,55,0.00,,,0.00,VWS V13.01,2013-01-10 14:07:00,
2013-01-10 09:10:00,48.1,32.7,32.45,SW,233,7.0,8.0,55,0.00,,,0.00,VWS V13.01,2013-01-10 14:10:00,
2013-01-10 09:12:00,47.8,32.4,32.45,West,262,6.0,10.0,55,0.00,,,0.00,VWS V13.01,2013-01-10 14:12:00,
2013-01-10 09:15:00,48.0,32.6,32.45,WSW,239,4.0,10.0,55,0.00,,,0.00,VWS V13.01,2013-01-10 14:15:00,
2013-01-10 09:17:00,47.5,32.2,32.45,WSW,250,4.0,14.0,55,0.00,,,0.00,VWS V13.01,2013-01-10 14:17:00,
2013-01-10 09:20:00,47.8,32.4,32.45,West,262,6.0,10.0,55,0.00,,,0.00,VWS V13.01,2013-01-10 14:20:00,
2013-01-10 09:22:00,47.2,32.3,32.45,WSW,237,4.0,9.0,56,0.00,,,0.00,VWS V13.01,2013-01-10 14:22:00,
2013-01-10 09:25:00,47.5,32.2,32.45,WSW,250,4.0,14.0,55,0.00,,,0.00,VWS V13.01,2013-01-10 14:25:00,
2013-01-10 09:28:00,47.2,32.3,32.45,WSW,257,7.0,9.0,56,0.00,,,0.00,VWS V13.01,2013-01-10 14:28:00,
2013-01-10 09:30:00,47.2,32.3,32.45,WSW,238,3.0,9.0,56,0.00,,,0.00,VWS V13.01,2013-01-10 14:30:00,
2013-01-10 09:33:00,47.3,32.4,32.45,WSW,257,5.0,9.0,56,0.00,,,0.00,VWS V13.01,2013-01-10 14:33:00,
2013-01-10 09:35:00,47.2,32.3,32.45,WSW,257,7.0,9.0,56,0.00,,,0.00,VWS V13.01,2013-01-10 14:35:00,
2013-01-10 09:37:00,47.6,32.7,32.45,West,264,10.0,10.0,56,0.00,,,0.00,VWS V13.01,2013-01-10 14:37:00,
2013-01-10 09:40:00,47.3,32.4,32.45,WSW,257,5.0,9.0,56,0.00,,,0.00,VWS V13.01,2013-01-10 14:40:00,
2013-01-10 09:42:00,47.9,32.5,32.45,WSW,238,5.0,9.0,55,0.00,,,0.00,VWS V13.01,2013-01-10 14:42:00,
2013-01-10 09:45:00,47.6,32.7,32.45,WSW,241,7.0,10.0,56,0.00,,,0.00,VWS V13.01,2013-01-10 14:45:00,
2013-01-10 09:47:00,48.2,32.8,32.45,WSW,248,3.0,9.0,55,0.00,,,0.00,VWS V13.01,2013-01-10 14:47:00,
2013-01-10 09:50:00,47.9,32.5,32.45,SW,234,5.0,9.0,55,0.00,,,0.00,VWS V13.01,2013-01-10 14:50:00,
2013-01-10 09:53:00,48.6,33.2,32.45,WSW,245,1.0,6.0,55,0.00,,,0.00,VWS V13.01,2013-01-10 14:53:00,
2013-01-10 09:55:00,48.2,32.8,32.45,West,271,5.0,9.0,55,0.00,,,0.00,VWS V13.01,2013-01-10 14:55:00,
2013-01-10 09:57:00,49.1,33.2,32.45,WSW,252,4.0,8.0,54,0.00,,,0.00,VWS V13.01,2013-01-10 14:57:00,
2013-01-10 10:00:00,48.6,33.2,32.45,WSW,245,1.0,6.0,55,0.00,,,0.00,VWS V13.01,2013-01-10 15:00:00,
2013-01-10 10:02:00,49.1,32.7,32.45,SSW,206,5.0,8.0,53,0.00,,,0.00,VWS V13.01,2013-01-10 15:02:00,
2013-01-10 10:05:00,49.1,33.2,32.45,WSW,252,3.0,8.0,54,0.00,,,0.00,VWS V13.01,2013-01-10 15:05:00,
2013-01-10 10:08:00,49.2,32.8,32.45,WSW,248,6.0,12.0,53,0.00,,,0.00,VWS V13.01,2013-01-10 15:08:00,
2013-01-10 10:10:00,49.1,32.7,32.45,SW,215,5.0,8.0,53,0.00,,,0.00,VWS V13.01,2013-01-10 15:10:00,
2013-01-10 10:12:00,48.9,32.5,32.45,West,259,5.0,11.0,53,0.00,,,0.00,VWS V13.01,2013-01-10 15:12:00,
2013-01-10 10:15:00,49.2,32.8,32.45,WSW,248,6.0,12.0,53,0.00,,,0.00,VWS V13.01,2013-01-10 15:15:00,
2013-01-10 10:18:00,49.1,33.2,32.45,West,268,3.0,9.0,54,0.00,,,0.00,VWS V13.01,2013-01-10 15:18:00,
2013-01-10 10:20:00,48.9,32.5,32.45,West,259,5.0,11.0,53,0.00,,,0.00,VWS V13.01,2013-01-10 15:20:00,
2013-01-10 10:23:00,49.5,33.1,32.45,WSW,239,3.0,9.0,53,0.00,,,0.00,VWS V13.01,2013-01-10 15:23:00,
2013-01-10 10:25:00,49.1,33.2,32.45,West,268,3.0,9.0,54,0.00,,,0.00,VWS V13.01,2013-01-10 15:25:00,
2013-01-10 10:27:00,49.8,33.8,32.45,SSW,211,3.0,10.0,54,0.00,,,0.00,VWS V13.01,2013-01-10 15:27:00,
2013-01-10 10:30:00,49.5,33.1,32.45,WSW,239,3.0,9.0,53,0.00,,,0.00,VWS V13.01,2013-01-10 15:30:00,
2013-01-10 10:32:00,50.1,33.2,32.45,WSW,246,5.0,11.0,52,0.00,,,0.00,VWS V13.01,2013-01-10 15:32:00,
2013-01-10 10:35:00,49.8,33.8,32.45,SSW,210,3.0,10.0,54,0.00,,,0.00,VWS V13.01,2013-01-10 15:35:00,
2013-01-10 10:37:00,50.4,33.9,32.45,WSW,246,7.0,7.0,53,0.00,,,0.00,VWS V13.01,2013-01-10 15:37:00,
2013-01-10 10:40:00,50.1,33.2,32.45,WSW,246,5.0,11.0,52,0.00,,,0.00,VWS V13.01,2013-01-10 15:40:00,
2013-01-10 10:42:00,50.1,33.2,32.45,WSW,248,5.0,11.0,52,0.00,,,0.00,VWS V13.01,2013-01-10 15:42:00,
2013-01-10 10:45:00,50.4,33.9,32.45,WSW,256,6.0,7.0,53,0.00,,,0.00,VWS V13.01,2013-01-10 15:45:00,
2013-01-10 10:47:00,50.1,33.2,32.45,WSW,256,11.0,12.0,52,0.00,,,0.00,VWS V13.01,2013-01-10 15:47:00,
2013-01-10 10:50:00,50.1,33.2,32.45,West,269,7.0,11.0,52,0.00,,,0.00,VWS V13.01,2013-01-10 15:50:00,
2013-01-10 10:52:00,50.1,33.2,32.45,WSW,248,6.0,13.0,52,0.00,,,0.00,VWS V13.01,2013-01-10 15:52:00,
2013-01-10 10:55:00,50.1,33.2,32.45,WSW,252,12.0,12.0,52,0.00,,,0.00,VWS V13.01,2013-01-10 15:55:00,
2013-01-10 10:57:00,50.1,33.2,32.45,West,264,3.0,10.0,52,0.00,,,0.00,VWS V13.01,2013-01-10 15:57:00,
2013-01-10 11:00:00,50.1,33.2,32.45,WSW,246,10.0,13.0,52,0.00,,,0.00,VWS V13.01,2013-01-10 16:00:00,
2013-01-10 11:02:00,50.8,33.3,32.45,WNW,289,6.0,10.0,51,0.00,,,0.00,VWS V13.01,2013-01-10 16:02:00,
2013-01-10 11:05:00,50.1,33.2,32.45,West,264,4.0,10.0,52,0.00,,,0.00,VWS V13.01,2013-01-10 16:05:00,
2013-01-10 11:07:00,50.9,33.4,32.45,SW,233,6.0,12.0,51,0.00,,,0.00,VWS V13.01,2013-01-10 16:07:00,
2013-01-10 11:10:00,50.8,33.3,32.45,WNW,294,5.0,10.0,51,0.00,,,0.00,VWS V13.01,2013-01-10 16:10:00,
2013-01-10 11:12:00,51.2,33.7,32.45,WSW,248,9.0,9.0,51,0.00,,,0.00,VWS V13.01,2013-01-10 16:12:00,
2013-01-10 11:15:00,50.9,33.4,32.45,SW,234,7.0,12.0,51,0.00,,,0.00,VWS V13.01,2013-01-10 16:15:00,
2013-01-10 11:17:00,51.6,33.6,32.45,West,277,10.0,10.0,50,0.00,,,0.00,VWS V13.01,2013-01-10 16:17:00,
2013-01-10 11:20:00,51.2,33.7,32.45,West,276,7.0,9.0,51,0.00,,,0.00,VWS V13.01,2013-01-10 16:20:00,
2013-01-10 11:22:00,51.8,33.3,32.45,West,279,6.0,10.0,49,0.00,,,0.00,VWS V13.01,2013-01-10 16:22:00,
2013-01-10 11:25:00,51.6,33.6,32.45,West,271,7.0,10.0,50,0.00,,,0.00,VWS V13.01,2013-01-10 16:25:00,
2013-01-10 11:27:00,51.4,33.4,32.45,West,261,4.0,14.0,50,0.00,,,0.00,VWS V13.01,2013-01-10 16:27:00,
2013-01-10 11:30:00,51.8,33.3,32.45,West,271,6.0,10.0,49,0.00,,,0.00,VWS V13.01,2013-01-10 16:30:00,
2013-01-10 11:32:00,51.4,33.4,32.45,West,263,6.0,12.0,50,0.00,,,0.00,VWS V13.01,2013-01-10 16:32:00,
2013-01-10 11:35:00,51.3,33.3,32.45,West,277,6.0,14.0,50,0.00,,,0.00,VWS V13.01,2013-01-10 16:35:00,
2013-01-10 11:37:00,51.2,33.2,32.45,West,260,8.0,9.0,50,0.00,,,0.00,VWS V13.01,2013-01-10 16:37:00,
2013-01-10 11:40:00,51.4,33.4,32.45,West,276,7.0,12.0,50,0.00,,,0.00,VWS V13.01,2013-01-10 16:40:00,
2013-01-10 11:42:00,51.3,33.3,32.45,West,279,4.0,12.0,50,0.00,,,0.00,VWS V13.01,2013-01-10 16:42:00,
2013-01-10 11:45:00,51.2,33.2,32.45,West,260,5.0,9.0,50,0.00,,,0.00,VWS V13.01,2013-01-10 16:45:00,
2013-01-10 11:48:00,51.9,33.9,32.45,West,269,9.0,10.0,50,0.00,,,0.00,VWS V13.01,2013-01-10 16:48:00,
2013-01-10 11:50:00,51.3,33.3,32.45,West,276,3.0,12.0,50,0.00,,,0.00,VWS V13.01,2013-01-10 16:50:00,
2013-01-10 11:52:00,52.7,34.1,32.45,WSW,252,7.0,11.0,49,0.00,,,0.00,VWS V13.01,2013-01-10 16:52:00,
2013-01-10 11:55:00,51.9,33.9,32.45,West,269,9.0,10.0,50,0.00,,,0.00,VWS V13.01,2013-01-10 16:55:00,
2013-01-10 11:57:00,52.6,33.5,32.45,WSW,253,6.0,11.0,48,0.00,,,0.00,VWS V13.01,2013-01-10 16:57:00,
2013-01-10 12:00:00,52.7,34.1,32.45,WSW,248,5.0,11.0,49,0.00,,,0.00,VWS V13.01,2013-01-10 17:00:00,
2013-01-10 12:02:00,52.6,33.5,32.45,WSW,246,3.0,10.0,48,0.00,,,0.00,VWS V13.01,2013-01-10 17:02:00,
2013-01-10 12:05:00,52.6,33.5,32.45,WSW,244,5.0,11.0,48,0.00,,,0.00,VWS V13.01,2013-01-10 17:05:00,
2013-01-10 12:07:00,52.2,33.1,32.45,WSW,257,4.0,11.0,48,0.00,,,0.00,VWS V13.01,2013-01-10 17:07:00,
2013-01-10 12:10:00,52.6,33.5,32.45,WSW,245,5.0,10.0,48,0.00,,,0.00,VWS V13.01,2013-01-10 17:10:00,
2013-01-10 12:13:00,52.1,33.5,32.45,WSW,248,3.0,12.0,49,0.00,,,0.00,VWS V13.01,2013-01-10 17:13:00,
2013-01-10 12:15:00,52.2,33.1,32.45,WSW,257,3.0,11.0,48,0.00,,,0.00,VWS V13.01,2013-01-10 17:15:00,
2013-01-10 12:17:00,52.6,33.5,32.45,West,274,4.0,11.0,48,0.00,,,0.00,VWS V13.01,2013-01-10 17:17:00,
2013-01-10 12:20:00,52.1,33.5,32.45,WSW,248,3.0,12.0,49,0.00,,,0.00,VWS V13.01,2013-01-10 17:20:00,
2013-01-10 12:22:00,53.2,34.0,32.45,West,267,2.0,7.0,48,0.00,,,0.00,VWS V13.01,2013-01-10 17:22:00,
2013-01-10 12:25:00,52.6,33.5,32.45,West,271,4.0,11.0,48,0.00,,,0.00,VWS V13.01,2013-01-10 17:25:00,
2013-01-10 12:27:00,53.3,34.1,32.45,West,261,4.0,10.0,48,0.00,,,0.00,VWS V13.01,2013-01-10 17:27:00,
2013-01-10 12:30:00,53.2,34.0,32.45,West,267,3.0,7.0,48,0.00,,,0.00,VWS V13.01,2013-01-10 17:30:00,
2013-01-10 12:33:00,53.4,34.2,32.45,WSW,253,5.0,8.0,48,0.00,,,0.00,VWS V13.01,2013-01-10 17:33:00,
2013-01-10 12:35:00,53.3,34.1,32.45,West,261,4.0,10.0,48,0.00,,,0.00,VWS V13.01,2013-01-10 17:35:00,
2013-01-10 12:37:00,53.6,33.9,32.45,SW,214,5.0,11.0,47,0.00,,,0.00,VWS V13.01,2013-01-10 17:37:00,
2013-01-10 12:40:00,53.4,34.2,32.45,WSW,253,5.0,8.0,48,0.00,,,0.00,VWS V13.01,2013-01-10 17:40:00,
2013-01-10 12:42:00,53.4,33.7,32.45,WSW,250,4.0,11.0,47,0.00,,,0.00,VWS V13.01,2013-01-10 17:42:00,
2013-01-10 12:45:00,53.6,33.9,32.45,SW,216,2.0,11.0,47,0.00,,,0.00,VWS V13.01,2013-01-10 17:45:00,
2013-01-10 12:47:00,54.1,34.9,31.69,West,277,2.0,8.0,48,0.00,,,0.00,VWS V13.01,2013-01-10 17:47:00,
2013-01-10 12:50:00,53.3,33.6,32.45,WSW,237,3.0,11.0,47,0.00,,,0.00,VWS V13.01,2013-01-10 17:50:00,
2013-01-10 12:52:00,54.1,33.8,31.69,WSW,240,6.0,12.0,46,0.00,,,0.00,VWS V13.01,2013-01-10 17:52:00,
2013-01-10 12:55:00,54.1,34.9,31.69,West,277,2.0,8.0,48,0.00,,,0.00,VWS V13.01,2013-01-10 17:55:00,
2013-01-10 12:57:00,54.2,34.4,31.69,WSW,248,6.0,11.0,47,0.00,,,0.00,VWS V13.01,2013-01-10 17:57:00,
2013-01-10 13:00:00,54.1,33.8,31.69,WSW,249,6.0,12.0,46,0.00,,,0.00,VWS V13.01,2013-01-10 18:00:00,
2013-01-10 13:02:00,54.1,33.2,31.69,WSW,248,10.0,10.0,45,0.00,,,0.00,VWS V13.01,2013-01-10 18:02:00,
2013-01-10 13:05:00,54.2,34.4,31.69,WSW,243,9.0,11.0,47,0.00,,,0.00,VWS V13.01,2013-01-10 18:05:00,
2013-01-10 13:07:00,54.6,34.2,31.69,WSW,249,0.0,10.0,46,0.00,,,0.00,VWS V13.01,2013-01-10 18:07:00,
2013-01-10 13:10:00,54.1,33.2,31.69,WSW,241,7.0,10.0,45,0.00,,,0.00,VWS V13.01,2013-01-10 18:10:00,
2013-01-10 13:12:00,54.6,33.7,31.69,West,266,8.0,12.0,45,0.00,,,0.00,VWS V13.01,2013-01-10 18:12:00,
2013-01-10 13:15:00,54.6,34.2,31.69,WSW,250,0.0,10.0,46,0.00,,,0.00,VWS V13.01,2013-01-10 18:15:00,
2013-01-10 13:17:00,54.5,33.0,31.69,WSW,246,12.0,14.0,44,0.00,,,0.00,VWS V13.01,2013-01-10 18:17:00,
2013-01-10 13:20:00,54.6,33.7,31.69,WSW,244,7.0,12.0,45,0.00,,,0.00,VWS V13.01,2013-01-10 18:20:00,
2013-01-10 13:22:00,54.0,32.6,31.69,WSW,244,10.0,15.0,44,0.00,,,0.00,VWS V13.01,2013-01-10 18:22:00,
2013-01-10 13:25:00,54.5,33.0,31.69,SW,236,12.0,14.0,44,0.00,,,0.00,VWS V13.01,2013-01-10 18:25:00,
2013-01-10 13:27:00,54.0,32.6,31.69,WSW,237,5.0,12.0,44,0.00,,,0.00,VWS V13.01,2013-01-10 18:27:00,
2013-01-10 13:30:00,54.0,32.6,31.69,WSW,256,7.0,15.0,44,0.00,,,0.00,VWS V13.01,2013-01-10 18:30:00,
2013-01-10 13:32:00,54.5,33.6,31.69,WSW,257,4.0,11.0,45,0.00,,,0.00,VWS V13.01,2013-01-10 18:32:00,
2013-01-10 13:35:00,54.0,32.6,31.69,SW,236,4.0,12.0,44,0.00,,,0.00,VWS V13.01,2013-01-10 18:35:00,
2013-01-10 13:38:00,54.9,34.0,31.69,SW,227,7.0,12.0,45,0.00,,,0.00,VWS V13.01,2013-01-10 18:38:00,
2013-01-10 13:40:00,54.5,33.6,31.69,WSW,257,4.0,11.0,45,0.00,,,0.00,VWS V13.01,2013-01-10 18:40:00,
2013-01-10 13:43:00,54.8,32.8,31.69,West,279,10.0,14.0,43,0.00,,,0.00,VWS V13.01,2013-01-10 18:43:00,
2013-01-10 13:45:00,54.9,34.0,31.69,SW,227,7.0,12.0,45,0.00,,,0.00,VWS V13.01,2013-01-10 18:45:00,
2013-01-10 13:48:00,54.5,33.0,31.69,WSW,248,9.0,13.0,44,0.00,,,0.00,VWS V13.01,2013-01-10 18:48:00,
2013-01-10 13:50:00,54.8,32.8,31.69,West,279,10.0,14.0,43,0.00,,,0.00,VWS V13.01,2013-01-10 18:50:00,
2013-01-10 13:53:00,54.8,32.8,31.69,WSW,248,7.0,13.0,43,0.00,,,0.00,VWS V13.01,2013-01-10 18:53:00,
2013-01-10 13:55:00,54.5,33.0,31.69,WSW,248,9.0,13.0,44,0.00,,,0.00,VWS V13.01,2013-01-10 18:55:00,
2013-01-10 13:58:00,54.5,33.0,31.69,WSW,253,5.0,13.0,44,0.00,,,0.00,VWS V13.01,2013-01-10 18:58:00,
2013-01-10 14:00:00,54.8,32.8,31.69,WSW,248,7.0,13.0,43,0.00,,,0.00,VWS V13.01,2013-01-10 19:00:00,
2013-01-10 14:03:00,54.9,33.4,31.69,West,281,5.0,9.0,44,0.00,,,0.00,VWS V13.01,2013-01-10 19:03:00,
2013-01-10 14:05:00,54.5,33.0,31.69,WSW,253,5.0,13.0,44,0.00,,,0.00,VWS V13.01,2013-01-10 19:05:00,
2013-01-10 14:08:00,55.4,33.3,31.69,WSW,246,1.0,9.0,43,0.00,,,0.00,VWS V13.01,2013-01-10 19:08:00,
2013-01-10 14:10:00,54.9,33.4,31.69,West,281,5.0,9.0,44,0.00,,,0.00,VWS V13.01,2013-01-10 19:10:00,
2013-01-10 14:12:00,56.3,33.5,31.69,WSW,257,3.0,11.0,42,0.00,,,0.00,VWS V13.01,2013-01-10 19:12:00,
2013-01-10 14:15:00,55.4,33.3,31.69,WSW,246,1.0,9.0,43,0.00,,,0.00,VWS V13.01,2013-01-10 19:15:00,
2013-01-10 14:17:00,56.4,33.6,31.69,West,269,4.0,8.0,42,0.00,,,0.00,VWS V13.01,2013-01-10 19:17:00,
2013-01-10 14:20:00,56.3,33.5,31.69,West,280,5.0,11.0,42,0.00,,,0.00,VWS V13.01,2013-01-10 19:20:00,
2013-01-10 14:22:00,56.2,33.4,31.69,West,272,4.0,11.0,42,0.00,,,0.00,VWS V13.01,2013-01-10 19:22:00,
2013-01-10 14:25:00,56.4,33.6,31.69,West,267,4.0,8.0,42,0.00,,,0.00,VWS V13.01,2013-01-10 19:25:00,
2013-01-10 14:28:00,56.7,33.9,31.69,SW,217,2.0,5.0,42,0.00,,,0.00,VWS V13.01,2013-01-10 19:28:00,
2013-01-10 14:30:00,56.2,33.4,31.69,West,272,4.0,11.0,42,0.00,,,0.00,VWS V13.01,2013-01-10 19:30:00,
2013-01-10 14:33:00,56.9,34.7,31.69,SW,232,3.0,7.0,43,0.00,,,0.00,VWS V13.01,2013-01-10 19:33:00,
2013-01-10 14:35:00,56.7,33.9,31.69,SW,217,2.0,5.0,42,0.00,,,0.00,VWS V13.01,2013-01-10 19:35:00,
2013-01-10 14:38:00,57.0,33.5,31.69,West,271,5.0,10.0,41,0.00,,,0.00,VWS V13.01,2013-01-10 19:38:00,
2013-01-10 14:40:00,56.9,34.7,31.69,SW,232,3.0,7.0,43,0.00,,,0.00,VWS V13.01,2013-01-10 19:40:00,
2013-01-10 14:43:00,56.2,34.0,31.69,WSW,242,4.0,4.0,43,0.00,,,0.00,VWS V13.01,2013-01-10 19:43:00,
2013-01-10 14:45:00,57.1,33.6,31.69,WSW,254,6.0,7.0,41,0.00,,,0.00,VWS V13.01,2013-01-10 19:45:00,
2013-01-10 14:48:00,56.3,34.1,31.69,SW,215,4.0,4.0,43,0.00,,,0.00,VWS V13.01,2013-01-10 19:48:00,
2013-01-10 14:50:00,56.2,34.0,31.69,WSW,252,4.0,10.0,43,0.00,,,0.00,VWS V13.01,2013-01-10 19:50:00,
2013-01-10 14:53:00,56.4,33.6,31.69,West,269,4.0,5.0,42,0.00,,,0.00,VWS V13.01,2013-01-10 19:53:00,
2013-01-10 14:55:00,56.2,34.0,31.69,SSW,198,2.0,5.0,43,0.00,,,0.00,VWS V13.01,2013-01-10 19:55:00,
2013-01-10 14:58:00,56.5,33.7,31.69,WNW,284,2.0,2.0,42,0.00,,,0.00,VWS V13.01,2013-01-10 19:58:00,
2013-01-10 15:00:00,56.5,33.7,31.69,West,271,4.0,10.0,42,0.00,,,0.00,VWS V13.01,2013-01-10 20:00:00,
2013-01-10 15:03:00,56.8,34.0,31.69,West,272,6.0,6.0,42,0.00,,,0.00,VWS V13.01,2013-01-10 20:03:00,
2013-01-10 15:05:00,56.5,33.7,31.69,WNW,284,3.0,6.0,42,0.00,,,0.00,VWS V13.01,2013-01-10 20:05:00,
2013-01-10 15:08:00,56.8,34.6,31.69,West,267,2.0,3.0,43,0.00,,,0.00,VWS V13.01,2013-01-10 20:08:00,
2013-01-10 15:10:00,56.8,34.0,31.69,WSW,242,1.0,5.0,42,0.00,,,0.00,VWS V13.01,2013-01-10 20:10:00,
2013-01-10 15:13:00,56.8,34.0,31.69,WNW,286,2.0,5.0,42,0.00,,,0.00,VWS V13.01,2013-01-10 20:13:00,
2013-01-10 15:15:00,56.7,34.5,31.69,NNE,14,1.0,9.0,43,0.00,,,0.00,VWS V13.01,2013-01-10 20:15:00,
2013-01-10 15:18:00,56.9,34.1,31.69,WSW,250,3.0,3.0,42,0.00,,,0.00,VWS V13.01,2013-01-10 20:18:00,
2013-01-10 15:20:00,56.9,34.1,31.69,WNW,299,4.0,10.0,42,0.00,,,0.00,VWS V13.01,2013-01-10 20:20:00,
2013-01-10 15:23:00,57.4,33.9,31.69,West,270,2.0,2.0,41,0.00,,,0.00,VWS V13.01,2013-01-10 20:23:00,
2013-01-10 15:25:00,56.9,34.1,31.69,WSW,250,2.0,5.0,42,0.00,,,0.00,VWS V13.01,2013-01-10 20:25:00,
2013-01-10 15:28:00,57.2,34.3,31.69,West,260,1.0,3.0,42,0.00,,,0.00,VWS V13.01,2013-01-10 20:28:00,
2013-01-10 15:30:00,57.3,34.4,31.69,West,270,0.0,4.0,42,0.00,,,0.00,VWS V13.01,2013-01-10 20:30:00,
2013-01-10 15:33:00,57.1,33.6,31.69,WNW,291,1.0,4.0,41,0.00,,,0.00,VWS V13.01,2013-01-10 20:33:00,
2013-01-10 15:35:00,57.3,34.4,31.69,WSW,257,2.0,10.0,42,0.00,,,0.00,VWS V13.01,2013-01-10 20:35:00,
2013-01-10 15:38:00,57.0,33.5,31.69,WSW,250,3.0,3.0,41,0.00,,,0.00,VWS V13.01,2013-01-10 20:38:00,
2013-01-10 15:40:00,57.2,33.7,31.69,WNW,291,4.0,5.0,41,0.00,,,0.00,VWS V13.01,2013-01-10 20:40:00,
2013-01-10 15:43:00,56.8,33.4,31.69,WSW,251,0.0,2.0,41,0.00,,,0.00,VWS V13.01,2013-01-10 20:43:00,
2013-01-10 15:45:00,56.9,33.5,31.69,WSW,250,0.0,6.0,41,0.00,,,0.00,VWS V13.01,2013-01-10 20:45:00,
2013-01-10 15:48:00,56.7,33.9,31.69,NNW,329,0.0,2.0,42,0.00,,,0.00,VWS V13.01,2013-01-10 20:48:00,
2013-01-10 15:50:00,56.8,33.4,31.69,WSW,251,2.0,4.0,41,0.00,,,0.00,VWS V13.01,2013-01-10 20:50:00,
2013-01-10 15:53:00,56.7,33.9,31.69,NNW,330,1.0,1.0,42,0.00,,,0.00,VWS V13.01,2013-01-10 20:53:00,
2013-01-10 15:55:00,56.7,33.9,31.69,NNW,329,1.0,3.0,42,0.00,,,0.00,VWS V13.01,2013-01-10 20:55:00,
2013-01-10 15:58:00,56.7,33.9,31.69,WNW,300,3.0,3.0,42,0.00,,,0.00,VWS V13.01,2013-01-10 20:58:00,
2013-01-10 16:00:00,56.7,33.9,31.69,NNW,330,1.0,3.0,42,0.00,,,0.00,VWS V13.01,2013-01-10 21:00:00,
2013-01-10 16:03:00,56.6,33.8,31.69,WNW,285,2.0,4.0,42,0.00,,,0.00,VWS V13.01,2013-01-10 21:03:00,
2013-01-10 16:05:00,56.7,34.5,31.69,NW,314,0.0,3.0,43,0.00,,,0.00,VWS V13.01,2013-01-10 21:05:00,
2013-01-10 16:08:00,56.0,33.2,31.69,WSW,254,0.0,4.0,42,0.00,,,0.00,VWS V13.01,2013-01-10 21:08:00,
2013-01-10 16:10:00,56.6,33.8,31.69,WNW,296,3.0,3.0,42,0.00,,,0.00,VWS V13.01,2013-01-10 21:10:00,
2013-01-10 16:13:00,55.8,33.7,31.69,West,272,0.0,2.0,43,0.00,,,0.00,VWS V13.01,2013-01-10 21:13:00,
2013-01-10 16:15:00,56.1,33.3,31.69,WSW,254,3.0,5.0,42,0.00,,,0.00,VWS V13.01,2013-01-10 21:15:00,
2013-01-10 16:18:00,55.7,33.6,31.69,West,272,3.0,3.0,43,0.00,,,0.00,VWS V13.01,2013-01-10 21:18:00,
2013-01-10 16:20:00,55.8,33.7,31.69,West,272,1.0,4.0,43,0.00,,,0.00,VWS V13.01,2013-01-10 21:20:00,
2013-01-10 16:23:00,55.6,33.5,31.69,West,272,1.0,2.0,43,0.00,,,0.00,VWS V13.01,2013-01-10 21:23:00,
2013-01-10 16:25:00,55.7,33.6,31.69,West,272,0.0,2.0,43,0.00,,,0.00,VWS V13.01,2013-01-10 21:25:00,
2013-01-10 16:28:00,55.3,33.2,31.69,West,272,1.0,1.0,43,0.00,,,0.00,VWS V13.01,2013-01-10 21:28:00,
2013-01-10 16:30:00,55.6,33.5,31.69,West,272,1.0,3.0,43,0.00,,,0.00,VWS V13.01,2013-01-10 21:30:00,
2013-01-10 16:33:00,55.3,33.2,31.69,West,273,0.0,4.0,43,0.00,,,0.00,VWS V13.01,2013-01-10 21:33:00,
2013-01-10 16:35:00,55.4,33.3,31.69,West,272,0.0,4.0,43,0.00,,,0.00,VWS V13.01,2013-01-10 21:35:00,
2013-01-10 16:38:00,55.2,33.1,31.69,West,272,1.0,1.0,43,0.00,,,0.00,VWS V13.01,2013-01-10 21:38:00,
2013-01-10 16:40:00,55.3,33.2,31.69,West,272,2.0,2.0,43,0.00,,,0.00,VWS V13.01,2013-01-10 21:40:00,
2013-01-10 16:43:00,55.1,33.6,31.69,West,272,0.0,0.0,44,0.00,,,0.00,VWS V13.01,2013-01-10 21:43:00,
2013-01-10 16:45:00,55.2,33.1,31.69,West,273,0.0,4.0,43,0.00,,,0.00,VWS V13.01,2013-01-10 21:45:00,
2013-01-10 16:48:00,55.0,33.5,31.69,West,273,1.0,1.0,44,0.00,,,0.00,VWS V13.01,2013-01-10 21:48:00,
2013-01-10 16:50:00,55.2,33.7,31.69,West,272,0.0,2.0,44,0.00,,,0.00,VWS V13.01,2013-01-10 21:50:00,
2013-01-10 16:53:00,54.9,33.4,31.69,West,272,0.0,0.0,44,0.00,,,0.00,VWS V13.01,2013-01-10 21:53:00,
2013-01-10 16:55:00,55.0,33.5,31.69,West,272,0.0,1.0,44,0.00,,,0.00,VWS V13.01,2013-01-10 21:55:00,
2013-01-10 16:58:00,54.8,33.9,31.69,West,272,0.0,0.0,45,0.00,,,0.00,VWS V13.01,2013-01-10 21:58:00,
2013-01-10 17:00:00,54.9,33.4,31.69,West,273,0.0,2.0,44,0.00,,,0.00,VWS V13.01,2013-01-10 22:00:00,
2013-01-10 17:03:00,54.5,33.6,31.69,West,272,0.0,3.0,45,0.00,,,0.00,VWS V13.01,2013-01-10 22:03:00,
2013-01-10 17:05:00,54.8,33.9,31.69,West,273,0.0,2.0,45,0.00,,,0.00,VWS V13.01,2013-01-10 22:05:00,
2013-01-10 17:09:00,54.2,33.3,31.69,West,272,1.0,1.0,45,0.00,,,0.00,VWS V13.01,2013-01-10 22:09:00,
2013-01-10 17:10:00,54.5,33.6,31.69,West,273,3.0,3.0,45,0.00,,,0.00,VWS V13.01,2013-01-10 22:10:00,
2013-01-10 17:14:00,54.0,33.7,31.69,West,273,0.0,0.0,46,0.00,,,0.00,VWS V13.01,2013-01-10 22:14:00,
2013-01-10 17:15:00,54.3,33.4,31.69,West,272,0.0,3.0,45,0.00,,,0.00,VWS V13.01,2013-01-10 22:15:00,
2013-01-10 17:19:00,53.8,33.5,31.69,West,273,0.0,1.0,46,0.00,,,0.00,VWS V13.01,2013-01-10 22:19:00,
2013-01-10 17:20:00,54.0,33.7,31.69,West,273,0.0,1.0,46,0.00,,,0.00,VWS V13.01,2013-01-10 22:20:00,
2013-01-10 17:23:00,53.6,33.3,31.69,West,273,0.0,0.0,46,0.00,,,0.00,VWS V13.01,2013-01-10 22:23:00,
2013-01-10 17:25:00,53.8,33.5,31.69,West,273,0.0,1.0,46,0.00,,,0.00,VWS V13.01,2013-01-10 22:25:00,
2013-01-10 17:29:00,53.4,33.2,31.69,West,272,0.0,0.0,46,0.00,,,0.00,VWS V13.01,2013-01-10 22:29:00,
2013-01-10 17:30:00,53.7,34.0,31.69,West,272,0.0,1.0,47,0.00,,,0.00,VWS V13.01,2013-01-10 22:30:00,
2013-01-10 17:34:00,53.3,33.6,31.69,West,272,0.0,1.0,47,0.00,,,0.00,VWS V13.01,2013-01-10 22:34:00,
2013-01-10 17:35:00,53.4,33.2,31.69,West,273,0.0,0.0,46,0.00,,,0.00,VWS V13.01,2013-01-10 22:35:00,
2013-01-10 17:39:00,53.2,33.5,31.69,West,272,0.0,0.0,47,0.00,,,0.00,VWS V13.01,2013-01-10 22:39:00,
2013-01-10 17:40:00,53.3,33.6,31.69,West,273,0.0,1.0,47,0.00,,,0.00,VWS V13.01,2013-01-10 22:40:00,
2013-01-10 17:44:00,52.9,33.2,31.69,West,272,0.0,0.0,47,0.00,,,0.00,VWS V13.01,2013-01-10 22:44:00,
2013-01-10 17:45:00,53.2,33.5,31.69,West,272,0.0,1.0,47,0.00,,,0.00,VWS V13.01,2013-01-10 22:45:00,
2013-01-10 17:49:00,52.8,33.7,31.69,West,272,0.0,2.0,48,0.00,,,0.00,VWS V13.01,2013-01-10 22:49:00,
2013-01-10 17:50:00,52.9,33.2,31.69,West,272,0.0,1.0,47,0.00,,,0.00,VWS V13.01,2013-01-10 22:50:00,
2013-01-10 17:54:00,53.0,33.3,31.69,West,272,1.0,1.0,47,0.00,,,0.00,VWS V13.01,2013-01-10 22:54:00,
2013-01-10 17:55:00,52.8,33.2,31.69,West,273,1.0,3.0,47,0.00,,,0.00,VWS V13.01,2013-01-10 22:55:00,
2013-01-10 17:59:00,53.2,33.5,30.05,West,272,1.0,2.0,47,0.00,,,0.00,VWS V13.01,2013-01-10 22:59:00,
2013-01-10 18:00:00,53.0,33.3,31.69,West,272,0.0,2.0,47,0.00,,,0.00,VWS V13.01,2013-01-10 23:00:00,
2013-01-10 18:04:00,53.3,34.1,30.05,West,273,2.0,2.0,48,0.00,,,0.00,VWS V13.01,2013-01-10 23:04:00,
2013-01-10 18:05:00,53.1,33.4,31.69,West,272,0.0,2.0,47,0.00,,,0.00,VWS V13.01,2013-01-10 23:05:00,
2013-01-10 18:09:00,53.3,33.6,30.05,West,272,0.0,2.0,47,0.00,,,0.00,VWS V13.01,2013-01-10 23:09:00,
2013-01-10 18:10:00,53.3,34.1,30.05,West,272,0.0,2.0,48,0.00,,,0.00,VWS V13.01,2013-01-10 23:10:00,
2013-01-10 18:14:00,53.4,33.7,30.05,West,272,1.0,1.0,47,0.00,,,0.00,VWS V13.01,2013-01-10 23:14:00,
2013-01-10 18:15:00,53.3,34.1,30.05,West,273,0.0,2.0,48,0.00,,,0.00,VWS V13.01,2013-01-10 23:15:00,
2013-01-10 18:19:00,53.3,34.1,30.05,West,272,0.0,1.0,48,0.00,,,0.00,VWS V13.01,2013-01-10 23:19:00,
2013-01-10 18:20:00,53.4,34.2,30.05,West,272,0.0,2.0,48,0.00,,,0.00,VWS V13.01,2013-01-10 23:20:00,
2013-01-10 18:24:00,53.2,34.0,30.05,West,272,0.0,0.0,48,0.00,,,0.00,VWS V13.01,2013-01-10 23:24:00,
2013-01-10 18:25:00,53.4,33.7,30.05,West,272,0.0,2.0,47,0.00,,,0.00,VWS V13.01,2013-01-10 23:25:00,
2013-01-10 18:29:00,52.8,33.7,30.05,West,272,0.0,0.0,48,0.00,,,0.00,VWS V13.01,2013-01-10 23:29:00,
2013-01-10 18:30:00,53.3,34.1,30.05,West,272,0.0,2.0,48,0.00,,,0.00,VWS V13.01,2013-01-10 23:30:00,
2013-01-10 18:34:00,52.5,33.9,30.05,West,272,0.0,1.0,49,0.00,,,0.00,VWS V13.01,2013-01-10 23:34:00,
2013-01-10 18:35:00,52.9,33.8,30.05,West,273,0.0,1.0,48,0.00,,,0.00,VWS V13.01,2013-01-10 23:35:00,
2013-01-10 18:39:00,52.4,33.8,30.05,West,273,0.0,0.0,49,0.00,,,0.00,VWS V13.01,2013-01-10 23:39:00,
2013-01-10 18:40:00,52.5,33.9,30.05,West,272,0.0,0.0,49,0.00,,,0.00,VWS V13.01,2013-01-10 23:40:00,
2013-01-10 18:44:00,52.2,33.6,30.05,West,273,0.0,0.0,49,0.00,,,0.00,VWS V13.01,2013-01-10 23:44:00,
2013-01-10 18:45:00,52.4,33.8,30.05,West,272,0.0,2.0,49,0.00,,,0.00,VWS V13.01,2013-01-10 23:45:00,
2013-01-10 18:49:00,51.8,33.8,30.05,West,273,0.0,0.0,50,0.00,,,0.00,VWS V13.01,2013-01-10 23:49:00,
2013-01-10 18:50:00,52.2,33.6,30.05,West,273,0.0,2.0,49,0.00,,,0.00,VWS V13.01,2013-01-10 23:50:00,
2013-01-10 18:54:00,51.6,34.1,30.05,West,272,0.0,0.0,51,0.00,,,0.00,VWS V13.01,2013-01-10 23:54:00,
2013-01-10 18:55:00,51.9,33.9,30.05,West,273,0.0,1.0,50,0.00,,,0.00,VWS V13.01,2013-01-10 23:55:00,
2013-01-10 18:59:00,51.5,33.5,30.05,West,273,0.0,0.0,50,0.00,,,0.00,VWS V13.01,2013-01-10 23:59:00,
2013-01-10 19:00:00,51.6,33.6,30.05,West,272,0.0,1.0,50,0.00,,,0.00,VWS V13.01,2013-01-11 00:00:00,
2013-01-10 19:04:00,51.4,33.4,30.05,West,272,0.0,0.0,50,0.00,,,0.00,VWS V13.01,2013-01-11 00:04:00,
2013-01-10 19:05:00,51.5,33.5,30.05,West,272,0.0,0.0,50,0.00,,,0.00,VWS V13.01,2013-01-11 00:05:00,
2013-01-10 19:09:00,51.2,33.7,30.05,West,272,0.0,0.0,51,0.00,,,0.00,VWS V13.01,2013-01-11 00:09:00,
2013-01-10 19:10:00,51.4,33.9,30.05,West,272,0.0,1.0,51,0.00,,,0.00,VWS V13.01,2013-01-11 00:10:00,
2013-01-10 19:14:00,51.0,33.5,30.05,West,272,0.0,0.0,51,0.00,,,0.00,VWS V13.01,2013-01-11 00:14:00,
2013-01-10 19:15:00,51.3,33.3,30.05,West,273,0.0,0.0,50,0.00,,,0.00,VWS V13.01,2013-01-11 00:15:00,
2013-01-10 19:19:00,50.8,33.3,30.05,West,273,1.0,1.0,51,0.00,,,0.00,VWS V13.01,2013-01-11 00:19:00,
2013-01-10 19:20:00,51.1,33.6,30.05,West,273,0.0,0.0,51,0.00,,,0.00,VWS V13.01,2013-01-11 00:20:00,
2013-01-10 19:24:00,50.8,33.8,30.05,North,355,0.0,2.0,52,0.00,,,0.00,VWS V13.01,2013-01-11 00:24:00,
2013-01-10 19:25:00,50.9,33.4,30.05,West,272,0.0,1.0,51,0.00,,,0.00,VWS V13.01,2013-01-11 00:25:00,
2013-01-10 19:29:00,50.6,34.1,30.05,NNE,31,2.0,3.0,53,0.00,,,0.00,VWS V13.01,2013-01-11 00:29:00,
2013-01-10 19:30:00,50.9,33.9,30.05,North,355,2.0,4.0,52,0.00,,,0.00,VWS V13.01,2013-01-11 00:30:00,
2013-01-10 19:34:00,50.5,34.0,30.05,NE,47,1.0,3.0,53,0.00,,,0.00,VWS V13.01,2013-01-11 00:34:00,
2013-01-10 19:35:00,50.6,33.6,30.05,NNE,24,2.0,4.0,52,0.00,,,0.00,VWS V13.01,2013-01-11 00:35:00,
2013-01-10 19:39:00,50.3,33.8,30.05,NE,37,1.0,5.0,53,0.00,,,0.00,VWS V13.01,2013-01-11 00:39:00,
2013-01-10 19:40:00,50.5,34.0,30.05,NE,46,3.0,4.0,53,0.00,,,0.00,VWS V13.01,2013-01-11 00:40:00,
2013-01-10 19:44:00,50.1,33.7,30.05,North,355,1.0,5.0,53,0.00,,,0.00,VWS V13.01,2013-01-11 00:44:00,
2013-01-10 19:45:00,50.3,33.8,30.05,NE,52,1.0,4.0,53,0.00,,,0.00,VWS V13.01,2013-01-11 00:45:00,
2013-01-10 19:49:00,50.1,34.1,30.05,North,355,1.0,2.0,54,0.00,,,0.00,VWS V13.01,2013-01-11 00:49:00,
2013-01-10 19:50:00,50.2,33.7,30.05,North,5,2.0,7.0,53,0.00,,,0.00,VWS V13.01,2013-01-11 00:50:00,
2013-01-10 19:54:00,50.1,34.1,30.05,North,355,1.0,2.0,54,0.00,,,0.00,VWS V13.01,2013-01-11 00:54:00,
2013-01-10 19:55:00,50.1,34.1,30.05,North,355,1.0,5.0,54,0.00,,,0.00,VWS V13.01,2013-01-11 00:55:00,
2013-01-10 19:59:00,50.2,34.2,30.05,North,5,2.0,4.0,54,0.00,,,0.00,VWS V13.01,2013-01-11 00:59:00,
2013-01-10 20:00:00,50.1,34.1,30.05,North,355,1.0,4.0,54,0.00,,,0.00,VWS V13.01,2013-01-11 01:00:00,
2013-01-10 20:04:00,50.0,34.0,30.05,North,5,1.0,1.0,54,0.00,,,0.00,VWS V13.01,2013-01-11 01:04:00,
2013-01-10 20:05:00,50.1,34.1,30.05,North,355,1.0,4.0,54,0.00,,,0.00,VWS V13.01,2013-01-11 01:05:00,
2013-01-10 20:09:00,49.8,33.8,30.05,North,5,1.0,2.0,54,0.00,,,0.00,VWS V13.01,2013-01-11 01:09:00,
2013-01-10 20:10:00,50.0,34.0,30.05,North,5,0.0,4.0,54,0.00,,,0.00,VWS V13.01,2013-01-11 01:10:00,
2013-01-10 20:14:00,49.6,34.1,30.05,North,5,1.0,2.0,55,0.00,,,0.00,VWS V13.01,2013-01-11 01:14:00,
2013-01-10 20:15:00,49.9,33.9,30.05,North,360,0.0,3.0,54,0.00,,,0.00,VWS V13.01,2013-01-11 01:15:00,
2013-01-10 20:19:00,49.5,34.0,30.05,North,360,2.0,2.0,55,0.00,,,0.00,VWS V13.01,2013-01-11 01:19:00,
2013-01-10 20:20:00,49.7,34.2,30.05,North,5,0.0,2.0,55,0.00,,,0.00,VWS V13.01,2013-01-11 01:20:00,
2013-01-10 20:24:00,49.7,34.2,30.05,North,5,0.0,2.0,55,0.00,,,0.00,VWS V13.01,2013-01-11 01:24:00,
2013-01-10 20:25:00,49.5,34.0,30.05,North,5,0.0,2.0,55,0.00,,,0.00,VWS V13.01,2013-01-11 01:25:00,
2013-01-10 20:29:00,49.4,33.9,30.05,North,5,0.0,2.0,55,0.00,,,0.00,VWS V13.01,2013-01-11 01:29:00,
2013-01-10 20:30:00,49.7,34.2,30.05,North,5,0.0,2.0,55,0.00,,,0.00,VWS V13.01,2013-01-11 01:30:00,
2013-01-10 20:34:00,49.2,34.2,30.05,North,5,1.0,1.0,56,0.00,,,0.00,VWS V13.01,2013-01-11 01:34:00,
2013-01-10 20:35:00,49.6,34.1,30.05,North,5,1.0,2.0,55,0.00,,,0.00,VWS V13.01,2013-01-11 01:35:00,
2013-01-10 20:39:00,49.1,33.7,30.05,North,5,0.0,1.0,55,0.00,,,0.00,VWS V13.01,2013-01-11 01:39:00,
2013-01-10 20:40:00,49.2,34.2,30.05,North,360,1.0,2.0,56,0.00,,,0.00,VWS V13.01,2013-01-11 01:40:00,
2013-01-10 20:44:00,49.0,34.0,30.05,North,5,1.0,1.0,56,0.00,,,0.00,VWS V13.01,2013-01-11 01:44:00,
2013-01-10 20:45:00,49.1,33.7,30.05,North,5,1.0,2.0,55,0.00,,,0.00,VWS V13.01,2013-01-11 01:45:00,
2013-01-10 20:49:00,48.8,33.8,30.05,North,5,1.0,1.0,56,0.00,,,0.00,VWS V13.01,2013-01-11 01:49:00,
2013-01-10 20:50:00,49.0,34.0,30.05,North,360,1.0,2.0,56,0.00,,,0.00,VWS V13.01,2013-01-11 01:50:00,
2013-01-10 20:54:00,48.7,33.7,30.05,North,5,0.0,1.0,56,0.00,,,0.00,VWS V13.01,2013-01-11 01:54:00,
2013-01-10 20:55:00,48.8,33.8,30.05,North,360,1.0,1.0,56,0.00,,,0.00,VWS V13.01,2013-01-11 01:55:00,
2013-01-10 20:59:00,48.3,33.3,30.05,North,5,0.0,1.0,56,0.00,,,0.00,VWS V13.01,2013-01-11 01:59:00,
2013-01-10 21:00:00,48.7,33.7,30.05,North,5,1.0,2.0,56,0.00,,,0.00,VWS V13.01,2013-01-11 02:00:00,
2013-01-10 21:04:00,48.0,33.5,30.05,North,360,0.0,1.0,57,0.00,,,0.00,VWS V13.01,2013-01-11 02:04:00,
2013-01-10 21:05:00,48.4,33.9,30.05,North,5,1.0,2.0,57,0.00,,,0.00,VWS V13.01,2013-01-11 02:05:00,
2013-01-10 21:09:00,47.8,33.3,30.05,North,5,0.0,1.0,57,0.00,,,0.00,VWS V13.01,2013-01-11 02:09:00,
2013-01-10 21:10:00,48.1,33.6,30.05,North,5,0.0,1.0,57,0.00,,,0.00,VWS V13.01,2013-01-11 02:10:00,
2013-01-10 21:14:00,47.7,33.2,30.05,North,5,0.0,0.0,57,0.00,,,0.00,VWS V13.01,2013-01-11 02:14:00,
2013-01-10 21:15:00,47.8,33.3,30.05,North,360,0.0,1.0,57,0.00,,,0.00,VWS V13.01,2013-01-11 02:15:00,
2013-01-10 21:19:00,47.5,33.5,30.05,North,360,1.0,1.0,58,0.00,,,0.00,VWS V13.01,2013-01-11 02:19:00,
2013-01-10 21:20:00,47.7,33.2,30.05,North,5,0.0,1.0,57,0.00,,,0.00,VWS V13.01,2013-01-11 02:20:00,
2013-01-10 21:24:00,47.8,33.8,30.05,North,5,1.0,2.0,58,0.00,,,0.00,VWS V13.01,2013-01-11 02:24:00,
2013-01-10 21:25:00,47.6,33.1,30.05,North,5,0.0,1.0,57,0.00,,,0.00,VWS V13.01,2013-01-11 02:25:00,
2013-01-10 21:29:00,47.9,33.4,30.05,North,5,0.0,0.0,57,0.00,,,0.00,VWS V13.01,2013-01-11 02:29:00,
2013-01-10 21:30:00,47.7,33.7,30.05,North,360,0.0,1.0,58,0.00,,,0.00,VWS V13.01,2013-01-11 02:30:00,
2013-01-10 21:34:00,47.4,33.4,30.05,North,5,0.0,0.0,58,0.00,,,0.00,VWS V13.01,2013-01-11 02:34:00,
2013-01-10 21:35:00,47.9,33.4,30.05,North,360,0.0,2.0,57,0.00,,,0.00,VWS V13.01,2013-01-11 02:35:00,
2013-01-10 21:39:00,47.0,33.0,30.05,North,360,1.0,2.0,58,0.00,,,0.00,VWS V13.01,2013-01-11 02:39:00,
2013-01-10 21:40:00,47.6,33.1,30.05,North,5,0.0,0.0,57,0.00,,,0.00,VWS V13.01,2013-01-11 02:40:00,
2013-01-10 21:44:00,47.2,33.2,30.05,North,360,0.0,2.0,58,0.00,,,0.00,VWS V13.01,2013-01-11 02:44:00,
2013-01-10 21:45:00,47.0,33.0,30.05,North,5,1.0,1.0,58,0.00,,,0.00,VWS V13.01,2013-01-11 02:45:00,
2013-01-10 21:49:00,47.5,33.5,30.05,North,5,0.0,1.0,58,0.00,,,0.00,VWS V13.01,2013-01-11 02:49:00,
2013-01-10 21:50:00,47.1,33.1,30.05,North,360,1.0,2.0,58,0.00,,,0.00,VWS V13.01,2013-01-11 02:50:00,
2013-01-10 21:54:00,47.5,33.5,30.05,North,360,0.0,1.0,58,0.00,,,0.00,VWS V13.01,2013-01-11 02:54:00,
2013-01-10 21:55:00,47.4,33.4,30.05,North,5,1.0,3.0,58,0.00,,,0.00,VWS V13.01,2013-01-11 02:55:00,
2013-01-10 21:59:00,46.9,32.9,30.05,North,360,0.0,0.0,58,0.00,,,0.00,VWS V13.01,2013-01-11 02:59:00,
2013-01-10 22:00:00,47.5,33.5,30.05,North,5,0.0,2.0,58,0.00,,,0.00,VWS V13.01,2013-01-11 03:00:00,
2013-01-10 22:04:00,46.4,32.9,30.05,North,5,0.0,2.0,59,0.00,,,0.00,VWS V13.01,2013-01-11 03:04:00,
2013-01-10 22:05:00,47.2,33.2,30.05,North,360,0.0,1.0,58,0.00,,,0.00,VWS V13.01,2013-01-11 03:05:00,
2013-01-10 22:09:00,46.5,33.0,30.05,North,360,0.0,1.0,59,0.00,,,0.00,VWS V13.01,2013-01-11 03:09:00,
2013-01-10 22:10:00,46.6,33.1,30.05,North,360,0.0,1.0,59,0.00,,,0.00,VWS V13.01,2013-01-11 03:10:00,
2013-01-10 22:14:00,46.1,33.0,30.05,North,5,0.0,0.0,60,0.00,,,0.00,VWS V13.01,2013-01-11 03:14:00,
2013-01-10 22:15:00,46.4,32.9,30.05,North,5,0.0,2.0,59,0.00,,,0.00,VWS V13.01,2013-01-11 03:15:00,
2013-01-10 22:19:00,45.7,32.6,30.05,North,360,0.0,1.0,60,0.00,,,0.00,VWS V13.01,2013-01-11 03:19:00,
2013-01-10 22:20:00,46.4,32.9,30.05,North,5,0.0,1.0,59,0.00,,,0.00,VWS V13.01,2013-01-11 03:20:00,
2013-01-10 22:24:00,45.8,32.7,30.05,North,5,0.0,1.0,60,0.00,,,0.00,VWS V13.01,2013-01-11 03:24:00,
2013-01-10 22:25:00,45.8,32.7,30.05,North,5,0.0,1.0,60,0.00,,,0.00,VWS V13.01,2013-01-11 03:25:00,
2013-01-10 22:29:00,45.7,33.0,30.05,North,5,0.0,1.0,61,0.00,,,0.00,VWS V13.01,2013-01-11 03:29:00,
2013-01-10 22:30:00,45.7,33.0,30.05,North,360,1.0,1.0,61,0.00,,,0.00,VWS V13.01,2013-01-11 03:30:00,
2013-01-10 22:34:00,46.0,32.9,30.05,North,5,1.0,2.0,60,0.00,,,0.00,VWS V13.01,2013-01-11 03:34:00,
2013-01-10 22:35:00,45.7,32.6,30.05,North,5,0.0,1.0,60,0.00,,,0.00,VWS V13.01,2013-01-11 03:35:00,
2013-01-10 22:39:00,46.4,33.3,30.05,North,5,2.0,3.0,60,0.00,,,0.00,VWS V13.01,2013-01-11 03:39:00,
2013-01-10 22:40:00,45.8,33.1,30.05,North,5,1.0,3.0,61,0.00,,,0.00,VWS V13.01,2013-01-11 03:40:00,
2013-01-10 22:44:00,46.4,33.3,30.05,North,360,1.0,1.0,60,0.00,,,0.00,VWS V13.01,2013-01-11 03:44:00,
2013-01-10 22:45:00,46.3,33.2,30.05,North,360,1.0,2.0,60,0.00,,,0.00,VWS V13.01,2013-01-11 03:45:00,
2013-01-10 22:49:00,46.3,33.2,30.05,North,5,0.0,2.0,60,0.00,,,0.00,VWS V13.01,2013-01-11 03:49:00,
2013-01-10 22:50:00,46.5,33.4,30.05,North,360,0.0,3.0,60,0.00,,,0.00,VWS V13.01,2013-01-11 03:50:00,
2013-01-10 22:54:00,46.2,33.1,30.05,North,5,0.0,2.0,60,0.00,,,0.00,VWS V13.01,2013-01-11 03:54:00,
2013-01-10 22:55:00,46.3,33.2,30.05,North,5,0.0,2.0,60,0.00,,,0.00,VWS V13.01,2013-01-11 03:55:00,
2013-01-10 22:59:00,46.1,33.0,30.05,North,360,0.0,1.0,60,0.00,,,0.00,VWS V13.01,2013-01-11 03:59:00,
2013-01-10 23:00:00,46.1,33.0,30.05,North,360,1.0,2.0,60,0.00,,,0.00,VWS V13.01,2013-01-11 04:00:00,
2013-01-10 23:04:00,46.0,32.9,30.05,North,5,1.0,3.0,60,0.00,,,0.00,VWS V13.01,2013-01-11 04:04:00,
2013-01-10 23:05:00,46.2,33.1,30.05,North,360,0.0,3.0,60,0.00,,,0.00,VWS V13.01,2013-01-11 04:05:00,
2013-01-10 23:09:00,45.9,32.8,30.05,North,10,3.0,5.0,60,0.00,,,0.00,VWS V13.01,2013-01-11 04:09:00,
2013-01-10 23:10:00,46.1,33.0,30.05,North,5,1.0,2.0,60,0.00,,,0.00,VWS V13.01,2013-01-11 04:10:00,
2013-01-10 23:14:00,46.0,32.9,30.05,North,10,3.0,3.0,60,0.00,,,0.00,VWS V13.01,2013-01-11 04:14:00,
2013-01-10 23:15:00,46.0,32.9,30.05,North,5,0.0,3.0,60,0.00,,,0.00,VWS V13.01,2013-01-11 04:15:00,
2013-01-10 23:19:00,46.1,33.4,30.05,North,11,0.0,1.0,61,0.00,,,0.00,VWS V13.01,2013-01-11 04:19:00,
2013-01-10 23:20:00,45.9,33.2,30.05,North,11,1.0,5.0,61,0.00,,,0.00,VWS V13.01,2013-01-11 04:20:00,
2013-01-10 23:24:00,46.1,33.0,30.05,North,11,1.0,1.0,60,0.00,,,0.00,VWS V13.01,2013-01-11 04:24:00,
2013-01-10 23:25:00,46.1,33.0,30.05,North,10,0.0,3.0,60,0.00,,,0.00,VWS V13.01,2013-01-11 04:25:00,
2013-01-10 23:29:00,46.2,33.1,30.05,North,10,0.0,3.0,60,0.00,,,0.00,VWS V13.01,2013-01-11 04:29:00,
2013-01-10 23:30:00,46.1,33.0,30.05,North,11,1.0,4.0,60,0.00,,,0.00,VWS V13.01,2013-01-11 04:30:00,
2013-01-10 23:34:00,46.3,33.2,30.05,North,11,2.0,3.0,60,0.00,,,0.00,VWS V13.01,2013-01-11 04:34:00,
2013-01-10 23:35:00,46.1,33.0,30.05,North,11,1.0,3.0,60,0.00,,,0.00,VWS V13.01,2013-01-11 04:35:00,
2013-01-10 23:40:00,46.0,33.3,30.05,North,11,0.0,2.0,61,0.00,,,0.00,VWS V13.01,2013-01-11 04:40:00,
2013-01-10 23:44:00,46.0,32.9,30.05,North,10,1.0,3.0,60,0.00,,,0.00,VWS V13.01,2013-01-11 04:44:00,
2013-01-10 23:45:00,46.0,33.3,30.05,North,10,0.0,3.0,61,0.00,,,0.00,VWS V13.01,2013-01-11 04:45:00,
2013-01-10 23:49:00,46.0,32.9,30.05,North,10,1.0,4.0,60,0.00,,,0.00,VWS V13.01,2013-01-11 04:49:00,
2013-01-10 23:50:00,46.0,32.9,30.05,North,11,1.0,3.0,60,0.00,,,0.00,VWS V13.01,2013-01-11 04:50:00,
2013-01-10 23:55:00,46.1,33.0,30.05,North,11,3.0,3.0,60,0.00,,,0.00,VWS V13.01,2013-01-11 04:55:00,